QPF
0.01 0.00 0.00 0.00 0.00 0.01 0.00 0.00 0.00 0.00 0.00 0.00 0.01 0.00 0.03 0.03 0.00 0.00 0.00 0.00 0.00 0.00 0.00 0.02 0.02 0.04 0.01 0.00 0.00 0.00 0.00 0.00 0.01 0.00 0.00 0.00 0.00 0.00 0.00 0.00 0.00 0.01 0.00 0.00 0.00 0.00 0.00 0.00 0.00
0.01 0.00 0.00 0.00 0.00 0.00 0.00 0.00 0.00 0.00 0.01 0.01 0.00 0.00 0.02 0.06 0.00 0.00 0.00 0.00 0.00 0.00 0.02 0.04 0.05 0.04 0.01 0.00 0.00 0.01 0.01 0.02 0.01 0.01 0.01 0.00 0.00 0.00 0.00 0.00 0.01 0.01 0.01 0.00 0.00 0.00 0.00 0.00 0.01
0.01 0.00 0.00 0.00 0.00 0.00 0.00 0.00 0.00 0.00 0.00 0.00 0.00 0.00 0.00 0.00 0.00 0.00 0.00 0.00 0.00 0.00 0.01 0.03 0.03 0.03 0.02 0.02 0.02 0.04 0.02 0.02 0.02 0.03 0.02 0.00 0.00 0.00 0.00 0.00 0.01 0.01 0.00 0.00 0.00 0.00 0.00 0.00 0.01
0.04 0.08 0.08 0.04 0.00 0.00 0.00 0.00 0.00 0.00 0.00 0.00 0.00 0.00 0.00 0.00 0.00 0.00 0.00 0.00 0.01 0.03 0.07 0.04 0.04 0.04 0.02 0.01 0.01 0.00 0.01 0.01 0.02 0.04 0.03 0.01 0.03 0.00 0.02 0.00 0.00 0.00 0.00 0.00 0.00 0.00 0.00 0.00 0.00
0.06 0.04 0.02 0.01 0.00 0.00 0.00 0.00 0.00 0.00 0.00 0.00 0.00 0.00 0.00 0.00 0.00 0.00 0.00 0.00 0.02 0.02 0.04 0.02 0.03 0.02 0.02 0.00 0.01 0.01 0.00 0.00 0.00 0.01 0.01 0.03 0.02 0.02 0.03 0.04 0.01 0.00 0.00 0.00 0.00 0.00 0.00 0.00 0.00
0.02 0.02 0.01 0.01 0.00 0.00 0.00 0.01 0.00 0.00 0.00 0.00 0.00 0.00 0.00 0.00 0.00 0.00 0.00 0.00 0.01 0.00 0.00 0.00 0.01 0.00 0.00 0.00 0.00 0.00 0.01 0.01 0.01 0.01 0.01 0.02 0.01 0.02 0.00 0.00 0.00 0.00 0.00 0.00 0.00 0.00 0.00 0.00 0.00
0.05 0.08 0.11 0.12 0.03 0.00 0.00 0.00 0.00 0.00 0.00 0.00 0.00 0.00 0.00 0.01 0.00 0.00 0.07 0.11 0.02 0.03 0.02 0.00 0.00 0.00 0.00 0.00 0.00 0.00 0.00 0.00 0.00 0.01 0.00 0.00 0.00 0.00 0.00 0.00 0.00 0.00 0.00 0.00 0.00 0.00 0.00 0.00 0.00
0.09 0.17 0.24 0.12 0.06 0.01 0.00 0.00 0.00 0.00 0.00 0.00 0.00 0.00 0.01 0.02 0.00 0.00 0.03 0.06 0.08 0.08 0.09 0.03 0.00 0.00 0.01 0.02 0.00 0.00 0.00 0.00 0.00 0.00 0.00 0.00 0.00 0.00 0.00 0.00 0.00 0.00 0.00 0.00 0.00 0.00 0.00 0.00 0.00
0.26 0.11 0.65 0.10 0.07 0.03 0.00 0.00 0.00 0.00 0.00 0.00 0.00 0.00 0.00 0.00 0.00 0.00 0.01 0.03 0.01 0.07 0.06 0.01 0.00 0.01 0.05 0.06 0.02 0.01 0.00 0.00 0.00 0.00 0.00 0.00 0.00 0.00 0.00 0.00 0.00 0.00 0.00 0.00 0.00 0.00 0.00 0.00 0.00
0.05 0.09 0.15 0.07 0.06 0.02 0.00 0.00 0.00 0.00 0.00 0.00 0.00 0.00 0.00 0.00 0.00 0.00 0.00 0.00 0.00 0.02 0.02 0.00 0.00 0.01 0.03 0.01 0.04 0.04 0.00 0.02 0.02 0.00 0.01 0.00 0.00 0.00 0.00 0.00 0.00 0.00 0.00 0.00 0.00 0.00 0.00 0.00 0.00
0.02 0.02 0.10 0.12 0.17 0.03 0.01 0.01 0.00 0.00 0.00 0.00 0.00 0.00 0.00 0.01 0.00 0.00 0.00 0.00 0.01 0.01 0.00 0.00 0.01 0.02 0.02 0.02 0.03 0.02 0.02 0.01 0.00 0.00 0.01 0.00 0.00 0.00 0.00 0.00 0.00 0.00 0.00 0.00 0.00 0.00 0.00 0.00 0.00
0.20 0.07 0.00 0.03 0.15 0.11 0.07 0.01 0.00 0.00 0.00 0.00 0.00 0.00 0.00 0.00 0.00 0.00 0.00 0.00 0.00 0.00 0.00 0.00 0.03 0.01 0.01 0.04 0.00 0.01 0.01 0.01 0.01 0.01 0.00 0.00 0.00 0.00 0.00 0.00 0.00 0.00 0.01 0.02 0.00 0.00 0.00 0.00 0.00
0.04 0.15 0.07 0.02 0.07 0.11 0.06 0.01 0.00 0.00 0.00 0.00 0.00 0.00 0.00 0.00 0.00 0.00 0.01 0.03 0.01 0.03 0.01 0.00 0.00 0.02 0.01 0.04 0.01 0.00 0.02 0.05 0.02 0.02 0.00 0.00 0.00 0.00 0.00 0.01 0.01 0.01 0.02 0.02 0.01 0.00 0.00 0.00 0.00
0.03 0.15 0.02 0.05 0.08 0.02 0.02 0.00 0.00 0.00 0.00 0.00 0.00 0.00 0.00 0.02 0.00 0.01 0.04 0.04 0.01 0.01 0.00 0.00 0.00 0.02 0.00 0.02 0.02 0.00 0.00 0.00 0.03 0.01 0.03 0.02 0.01 0.01 0.04 0.03 0.03 0.04 0.04 0.01 0.00 0.00 0.00 0.00 0.00
0.03 0.10 0.03 0.03 0.07 0.05 0.01 0.01 0.00 0.00 0.00 0.00 0.00 0.00 0.00 0.00 0.00 0.00 0.01 0.02 0.00 0.00 0.01 0.00 0.01 0.01 0.01 0.00 0.03 0.00 0.02 0.01 0.01 0.00 0.03 0.01 0.00 0.01 0.02 0.01 0.00 0.03 0.07 0.06 0.01 0.01 0.00 0.00 0.00
0.30 0.17 0.06 0.01 0.02 0.01 0.01 0.08 0.02 0.01 0.00 0.00 0.00 0.00 0.00 0.00 0.00 0.00 0.01 0.00 0.00 0.00 0.00 0.01 0.00 0.00 0.02 0.01 0.00 0.00 0.01 0.01 0.02 0.00 0.00 0.01 0.00 0.01 0.00 0.00 0.00 0.01 0.01 0.00 0.00 0.00 0.00 0.00 0.00
0.10 0.09 0.03 0.01 0.00 0.00 0.02 0.02 0.02 0.04 0.01 0.00 0.00 0.00 0.00 0.00 0.00 0.00 0.00 0.00 0.00 0.00 0.00 0.00 0.00 0.00 0.00 0.00 0.02 0.01 0.03 0.03 0.01 0.00 0.00 0.02 0.01 0.00 0.01 0.00 0.00 0.00 0.00 0.00 0.00 0.00 0.00 0.00 0.00
0.02 0.02 0.01 0.00 0.00 0.01 0.00 0.01 0.00 0.01 0.00 0.00 0.00 0.00 0.00 0.00 0.00 0.00 0.00 0.00 0.00 0.00 0.00 0.00 0.00 0.00 0.00 0.01 0.08 0.01 0.05 0.03 0.00 0.00 0.01 0.02 0.01 0.00 0.00 0.00 0.00 0.00 0.00 0.00 0.00 0.00 0.02 0.01 0.01
0.00 0.00 0.00 0.00 0.00 0.02 0.01 0.01 0.01 0.00 0.00 0.00 0.00 0.00 0.00 0.00 0.00 0.00 0.00 0.00 0.00 0.00 0.00 0.00 0.00 0.00 0.00 0.00 0.02 0.01 0.00 0.01 0.00 0.00 0.00 0.01 0.02 0.02 0.00 0.00 0.00 0.00 0.00 0.02 0.03 0.08 0.02 0.01 0.02
0.00 0.00 0.00 0.00 0.00 0.02 0.03 0.00 0.02 0.00 0.00 0.01 0.00 0.00 0.00 0.00 0.00 0.00 0.00 0.00 0.00 0.00 0.00 0.00 0.00 0.00 0.00 0.00 0.00 0.00 0.00 0.02 0.00 0.00 0.00 0.02 0.03 0.03 0.00 0.00 0.00 0.00 0.00 0.01 0.02 0.05 0.01 0.02 0.02
0.00 0.00 0.00 0.00 0.00 0.01 0.03 0.00 0.00 0.00 0.00 0.00 0.00 0.00 0.00 0.00 0.00 0.00 0.00 0.00 0.00 0.00 0.00 0.00 0.00 0.00 0.00 0.00 0.01 0.01 0.01 0.03 0.03 0.03 0.00 0.01 0.03 0.00 0.00 0.00 0.00 0.00 0.00 0.00 0.00 0.00 0.00 0.00 0.00
0.00 0.00 0.00 0.00 0.01 0.00 0.00 0.00 0.00 0.00 0.00 0.00 0.00 0.00 0.00 0.00 0.00 0.00 0.00 0.00 0.00 0.00 0.00 0.00 0.00 0.00 0.00 0.00 0.00 0.01 0.00 0.01 0.01 0.00 0.00 0.00 0.01 0.01 0.01 0.01 0.00 0.00 0.00 0.00 0.00 0.00 0.01 0.00 0.00
0.00 0.00 0.00 0.00 0.00 0.01 0.01 0.00 0.00 0.00 0.00 0.00 0.00 0.00 0.00 0.00 0.00 0.00 0.00 0.00 0.00 0.00 0.00 0.00 0.00 0.00 0.00 0.00 0.00 0.00 0.00 0.00 0.01 0.00 0.00 0.00 0.01 0.00 0.01 0.00 0.00 0.00 0.00 0.00 0.00 0.03 0.05 0.01 0.00
0.00 0.00 0.00 0.00 0.00 0.01 0.00 0.01 0.00 0.00 0.00 0.00 0.00 0.00 0.00 0.00 0.00 0.00 0.00 0.00 0.00 0.00 0.00 0.00 0.00 0.00 0.00 0.00 0.00 0.00 0.00 0.00 0.00 0.00 0.00 0.00 0.00 0.00 0.01 0.02 0.00 0.00 0.00 0.00 0.00 0.00 0.02 0.01 0.00
0.00 0.00 0.00 0.00 0.00 0.00 0.00 0.03 0.03 0.00 0.00 0.00 0.00 0.00 0.00 0.00 0.00 0.00 0.00 0.00 0.00 0.00 0.00 0.00 0.00 0.00 0.00 0.00 0.00 0.00 0.00 0.00 0.00 0.00 0.00 0.00 0.00 0.00 0.00 0.00 0.00 0.00 0.00 0.00 0.00 0.00 0.00 0.00 0.01
0.00 0.00 0.00 0.00 0.00 0.00 0.00 0.00 0.01 0.01 0.00 0.00 0.00 0.00 0.01 0.01 0.01 0.00 0.00 0.00 0.00 0.00 0.00 0.00 0.00 0.00 0.00 0.00 0.00 0.00 0.00 0.00 0.00 0.00 0.01 0.00 0.00 0.00 0.00 0.01 0.00 0.01 0.00 0.00 0.00 0.00 0.01 0.00 0.01
0.00 0.00 0.00 0.00 0.00 0.00 0.00 0.01 0.00 0.00 0.00 0.00 0.02 0.01 0.00 0.00 0.01 0.01 0.01 0.00 0.00 0.00 0.00 0.00 0.00 0.00 0.00 0.00 0.00 0.00 0.00 0.00 0.00 0.00 0.00 0.00 0.00 0.00 0.02 0.02 0.00 0.00 0.00 0.00 0.01 0.00 0.00 0.00 0.01
0.00 0.00 0.00 0.00 0.00 0.00 0.00 0.01 0.03 0.00 0.02 0.06 0.12 0.05 0.02 0.02 0.02 0.04 0.03 0.00 0.00 0.00 0.00 0.00 0.00 0.00 0.00 0.00 0.00 0.00 0.00 0.00 0.00 0.01 0.00 0.00 0.00 0.00 0.00 0.00 0.00 0.00 0.00 0.00 0.01 0.00 0.00 0.00 0.00
0.00 0.00 0.00 0.00 0.00 0.00 0.00 0.01 0.02 0.00 0.00 0.02 0.10 0.11 0.04 0.05 0.04 0.07 0.00 0.00 0.01 0.00 0.00 0.00 0.00 0.00 0.00 0.00 0.00 0.00 0.00 0.00 0.00 0.00 0.00 0.00 0.00 0.00 0.00 0.00 0.00 0.00 0.00 0.00 0.00 0.00 0.00 0.00 0.00
0.00 0.00 0.00 0.00 0.00 0.00 0.00 0.00 0.00 0.00 0.02 0.01 0.05 0.11 0.09 0.12 0.05 0.12 0.04 0.01 0.00 0.01 0.00 0.00 0.00 0.00 0.00 0.00 0.00 0.00 0.00 0.00 0.00 0.00 0.00 0.00 0.00 0.00 0.00 0.00 0.00 0.00 0.00 0.00 0.00 0.00 0.00 0.00 0.00
MSLP
1010.88 1010.77 1011.14 1011.50 1011.96 1011.65 1010.76 1010.09 1009.54 1009.79 1010.02 1010.10 1010.30 1011.08 1012.35 1012.96 1013.39 1015.06 1015.03 1015.70 1015.84 1016.17 1016.27 1016.19 1016.09 1016.04 1016.02 1016.06 1015.94 1015.81 1015.96 1016.07 1016.19 1016.20 1016.30 1016.31 1016.49 1016.56 1016.45 1016.54 1016.54 1016.43 1016.48 1016.70 1016.84 1017.00 1017.03 1017.22 1017.28
1010.60 1010.67 1011.12 1011.49 1011.77 1011.68 1010.65 1009.91 1009.83 1009.80 1010.42 1010.49 1010.87 1011.57 1012.35 1013.84 1013.91 1014.90 1015.65 1015.69 1015.84 1016.23 1016.31 1016.18 1016.27 1016.19 1016.32 1016.24 1016.05 1016.12 1016.18 1016.39 1016.49 1016.56 1016.59 1016.64 1016.73 1016.87 1016.84 1016.85 1016.84 1016.88 1016.81 1016.88 1017.11 1017.24 1017.28 1017.40 1017.46
1010.29 1010.70 1011.65 1012.16 1011.81 1010.90 1010.26 1009.97 1009.90 1010.07 1010.39 1010.55 1011.34 1011.90 1013.01 1014.11 1014.50 1015.05 1015.24 1015.75 1016.13 1016.40 1016.43 1016.41 1016.36 1016.27 1016.36 1016.27 1016.09 1016.15 1016.30 1016.66 1016.84 1016.99 1017.08 1017.10 1017.11 1017.09 1017.14 1017.13 1017.19 1017.29 1017.20 1017.20 1017.32 1017.45 1017.53 1017.57 1017.67
1010.45 1011.31 1012.36 1012.48 1011.45 1009.99 1009.24 1009.63 1009.82 1010.54 1010.94 1011.10 1011.45 1012.63 1013.72 1014.27 1014.42 1014.69 1015.40 1015.62 1016.29 1016.40 1016.48 1016.30 1016.44 1016.58 1016.64 1016.62 1016.71 1016.85 1017.00 1017.26 1017.47 1017.55 1017.44 1017.44 1017.39 1017.31 1017.30 1017.45 1017.51 1017.60 1017.48 1017.46 1017.55 1017.70 1017.74 1017.83 1017.86
1011.88 1012.76 1013.01 1012.57 1010.94 1010.20 1009.54 1009.67 1009.36 1010.45 1011.08 1011.42 1012.00 1013.26 1014.05 1014.34 1014.41 1015.12 1015.67 1016.02 1016.33 1016.60 1016.55 1016.40 1016.57 1016.67 1016.88 1016.86 1017.05 1017.13 1017.28 1017.42 1017.48 1017.68 1017.56 1017.63 1017.56 1017.63 1017.61 1017.79 1017.68 1017.75 1017.70 1017.69 1017.72 1017.80 1017.91 1018.02 1018.11
1013.18 1013.91 1013.89 1012.80 1011.11 1010.13 1009.70 1009.37 1009.98 1010.54 1011.26 1012.05 1012.51 1013.29 1014.43 1014.57 1014.99 1015.55 1015.86 1016.21 1016.24 1016.64 1016.47 1016.43 1016.69 1016.80 1016.88 1017.07 1017.31 1017.37 1017.43 1017.52 1017.79 1017.82 1017.92 1017.72 1017.81 1018.00 1018.03 1018.03 1017.95 1017.98 1017.93 1017.94 1018.00 1018.03 1018.01 1018.07 1018.14
1014.35 1015.08 1014.43 1013.04 1011.42 1010.05 1009.64 1009.52 1009.99 1010.53 1011.20 1012.01 1012.18 1013.34 1014.82 1015.11 1015.23 1015.62 1016.08 1016.28 1016.35 1016.63 1016.62 1016.74 1016.73 1016.90 1017.10 1017.46 1017.48 1017.47 1017.45 1017.57 1017.86 1018.02 1018.06 1018.14 1018.01 1018.19 1018.28 1018.27 1018.28 1018.28 1018.24 1018.18 1018.25 1018.22 1018.14 1018.04 1018.06
1014.49 1015.47 1014.90 1013.99 1012.27 1010.34 1009.52 1009.80 1010.48 1009.99 1010.99 1011.68 1012.10 1013.47 1014.74 1014.79 1015.25 1015.93 1016.36 1016.44 1016.56 1016.93 1016.92 1017.03 1017.04 1017.25 1017.46 1017.51 1017.69 1017.62 1017.65 1017.83 1017.98 1018.04 1018.16 1018.27 1018.33 1018.56 1018.61 1018.64 1018.53 1018.45 1018.44 1018.40 1018.34 1018.33 1018.30 1018.22 1018.25
1013.92 1015.59 1015.14 1014.25 1012.45 1011.46 1010.68 1009.98 1011.12 1010.61 1010.80 1011.37 1011.60 1012.53 1013.52 1014.48 1015.23 1016.11 1016.70 1016.92 1016.91 1017.07 1017.26 1017.10 1017.26 1017.58 1017.80 1017.77 1017.80 1017.80 1017.98 1018.01 1018.09 1018.19 1018.29 1018.49 1018.93 1018.93 1018.78 1018.73 1018.51 1018.49 1018.48 1018.58 1018.51 1018.49 1018.46 1018.42 1018.36
1014.37 1015.18 1015.10 1014.13 1013.14 1012.16 1011.44 1010.24 1010.09 1010.30 1010.75 1011.28 1012.20 1013.19 1013.98 1014.55 1015.54 1016.02 1016.38 1016.83 1017.00 1017.13 1017.39 1017.44 1017.64 1017.82 1017.85 1017.53 1017.76 1018.02 1018.07 1018.27 1018.32 1018.49 1018.72 1019.04 1019.13 1019.12 1018.95 1018.90 1018.73 1018.66 1018.66 1018.67 1018.58 1018.57 1018.52 1018.37 1018.39
1013.98 1014.26 1014.17 1013.33 1012.87 1012.65 1011.57 1010.28 1010.06 1009.98 1010.79 1010.91 1011.86 1013.10 1013.94 1014.61 1015.53 1015.93 1016.34 1016.56 1016.75 1017.20 1017.26 1017.41 1017.47 1017.89 1017.79 1017.60 1018.00 1018.26 1018.38 1018.50 1018.43 1018.88 1019.12 1019.12 1019.13 1019.02 1018.90 1018.95 1019.00 1018.94 1018.84 1018.81 1018.72 1018.86 1018.62 1018.39 1018.39
1013.36 1013.65 1013.62 1013.42 1013.07 1013.54 1011.83 1011.34 1010.27 1010.06 1010.37 1010.73 1011.53 1012.49 1013.62 1014.62 1015.15 1015.62 1016.14 1016.45 1016.91 1017.15 1017.20 1017.37 1017.59 1018.03 1017.80 1017.75 1018.23 1018.54 1018.55 1018.44 1018.59 1019.11 1019.13 1019.17 1019.10 1018.99 1019.01 1019.02 1019.01 1019.19 1019.12 1019.08 1018.94 1018.93 1018.75 1018.61 1018.58
1013.01 1013.53 1013.16 1013.32 1013.66 1013.45 1012.56 1011.41 1009.90 1010.23 1010.52 1010.89 1011.45 1012.54 1013.16 1013.98 1014.67 1015.38 1015.89 1016.50 1017.18 1017.12 1016.92 1017.20 1017.37 1018.05 1018.00 1017.96 1018.24 1018.67 1018.71 1018.51 1018.69 1019.18 1019.02 1018.89 1019.18 1018.93 1019.05 1019.26 1019.34 1019.33 1019.06 1019.02 1018.91 1018.74 1018.54 1018.48 1018.37
1011.99 1012.60 1012.67 1013.27 1013.41 1012.60 1012.14 1011.32 1010.33 1010.47 1010.35 1011.03 1011.74 1012.36 1013.15 1013.72 1014.36 1015.42 1016.49 1016.65 1017.05 1016.99 1017.05 1017.40 1017.72 1017.82 1018.14 1018.11 1018.13 1018.11 1018.32 1018.53 1018.93 1019.09 1018.76 1018.96 1018.88 1019.20 1019.31 1019.41 1019.25 1019.36 1019.10 1019.07 1019.13 1018.94 1018.70 1018.20 1018.32
1012.15 1012.41 1012.63 1013.13 1013.33 1013.13 1012.25 1011.49 1011.49 1011.00 1010.46 1011.06 1011.60 1012.32 1012.99 1013.20 1013.77 1014.50 1015.74 1016.16 1016.28 1016.51 1016.95 1017.35 1017.56 1017.65 1018.23 1018.27 1018.05 1018.22 1018.22 1018.12 1018.77 1018.60 1018.91 1018.66 1018.89 1019.18 1019.45 1019.57 1019.60 1019.35 1019.03 1019.26 1019.71 1019.07 1018.44 1018.15 1017.84
1012.33 1012.71 1012.81 1012.68 1013.05 1012.53 1012.09 1012.43 1012.34 1011.96 1011.46 1011.39 1011.71 1012.24 1012.85 1013.33 1013.68 1014.10 1015.00 1015.51 1015.98 1016.28 1016.69 1017.26 1017.55 1017.79 1018.28 1018.20 1018.17 1018.10 1018.07 1018.08 1018.22 1018.28 1018.39 1018.72 1018.85 1018.82 1019.04 1019.25 1019.43 1019.23 1019.17 1019.61 1019.97 1019.22 1018.94 1018.50 1018.60
1012.88 1013.06 1012.56 1012.35 1011.90 1012.28 1012.44 1012.98 1012.30 1012.32 1012.17 1012.18 1011.77 1011.80 1012.23 1012.99 1013.57 1014.00 1014.53 1015.11 1015.72 1016.03 1016.33 1017.00 1017.55 1017.78 1017.68 1017.73 1017.87 1018.05 1017.87 1017.95 1018.19 1018.22 1018.44 1018.40 1018.29 1018.46 1018.68 1019.05 1019.20 1019.16 1019.44 1019.53 1019.13 1019.45 1019.39 1019.30 1019.03
1012.17 1012.68 1012.33 1012.25 1012.17 1012.12 1012.58 1012.68 1012.31 1012.33 1012.66 1012.39 1012.09 1012.27 1012.66 1012.94 1013.11 1013.39 1014.08 1014.81 1015.33 1015.80 1016.02 1016.52 1017.17 1017.38 1017.53 1017.63 1018.32 1018.37 1018.28 1018.16 1018.21 1018.12 1018.26 1018.33 1018.12 1018.25 1018.85 1019.19 1019.01 1018.90 1019.21 1019.08 1019.07 1019.58 1019.78 1019.59 1019.81
1010.60 1011.61 1011.96 1011.78 1011.44 1011.85 1012.56 1012.83 1012.33 1011.84 1012.73 1012.67 1012.58 1012.35 1012.73 1012.84 1012.84 1013.31 1013.98 1014.72 1015.45 1015.71 1016.00 1016.40 1016.68 1017.23 1017.66 1018.11 1018.49 1018.65 1018.63 1018.31 1018.18 1018.17 1018.33 1018.31 1018.16 1018.52 1018.82 1018.94 1018.90 1018.99 1019.27 1018.89 1018.80 1019.40 1019.73 1020.00 1020.01
1009.46 1010.91 1011.60 1011.63 1011.95 1012.18 1012.81 1012.96 1012.78 1012.54 1012.55 1012.82 1012.70 1012.76 1012.78 1012.91 1013.10 1013.36 1013.89 1014.42 1014.99 1015.32 1015.74 1016.17 1016.36 1017.07 1017.31 1017.65 1017.95 1018.11 1018.35 1018.44 1018.10 1017.90 1018.25 1017.80 1018.27 1017.94 1018.68 1018.71 1019.04 1019.17 1019.34 1018.95 1018.73 1019.07 1019.74 1020.00 1020.04
1009.44 1010.06 1010.91 1011.24 1011.81 1012.44 1013.00 1013.52 1013.31 1012.83 1012.69 1012.80 1012.65 1012.60 1012.45 1012.57 1013.14 1013.24 1013.57 1014.19 1014.68 1015.21 1015.54 1015.87 1016.30 1016.77 1017.17 1017.53 1017.85 1018.06 1018.29 1018.43 1018.40 1018.25 1018.46 1017.89 1017.73 1018.03 1018.44 1018.83 1019.09 1019.16 1018.99 1019.14 1019.13 1019.42 1019.89 1019.73 1020.42
1008.11 1008.74 1009.62 1010.84 1012.13 1012.64 1012.77 1013.67 1013.50 1013.06 1012.77 1012.85 1012.75 1012.34 1012.43 1012.33 1012.74 1013.38 1013.39 1013.91 1014.42 1014.81 1015.28 1015.55 1016.36 1016.63 1017.10 1017.38 1017.75 1017.95 1018.30 1018.70 1018.60 1018.30 1018.13 1018.02 1017.81 1018.02 1018.36 1018.50 1018.67 1018.74 1018.80 1018.78 1019.02 1019.31 1019.31 1019.78 1020.43
1006.99 1008.11 1009.42 1010.54 1011.87 1012.88 1013.58 1014.11 1013.06 1013.17 1012.90 1012.17 1012.37 1012.30 1012.34 1012.05 1012.22 1012.83 1013.07 1013.33 1013.74 1014.47 1014.91 1015.42 1016.17 1016.55 1016.97 1017.22 1017.74 1018.21 1018.37 1018.52 1018.46 1018.25 1018.07 1018.13 1017.97 1017.92 1018.07 1018.17 1018.40 1018.26 1018.68 1018.79 1018.80 1018.90 1019.15 1019.42 1019.91
1006.41 1007.98 1009.74 1011.08 1012.67 1014.21 1014.18 1014.39 1013.31 1013.10 1012.18 1012.00 1011.60 1012.08 1012.11 1011.98 1012.11 1012.30 1012.93 1013.19 1013.48 1014.12 1014.79 1015.37 1015.98 1016.58 1016.77 1017.10 1017.62 1017.98 1018.42 1018.63 1018.41 1018.37 1018.36 1017.99 1018.04 1017.91 1017.93 1018.29 1018.57 1018.88 1018.72 1018.51 1018.38 1018.51 1018.67 1018.90 1019.28
1006.78 1008.94 1010.87 1012.59 1013.86 1014.44 1014.02 1014.05 1012.95 1012.13 1011.64 1011.50 1011.32 1011.63 1011.88 1011.75 1011.76 1012.17 1012.41 1013.18 1013.57 1013.80 1014.55 1015.17 1015.74 1016.21 1016.57 1016.80 1017.34 1017.69 1018.14 1018.34 1018.22 1018.09 1018.17 1018.20 1017.93 1017.83 1017.93 1017.74 1018.33 1018.59 1018.36 1018.11 1018.06 1018.23 1018.53 1018.66 1019.09
1007.57 1009.44 1011.56 1013.23 1014.73 1014.57 1013.97 1013.55 1012.45 1012.26 1011.26 1011.44 1011.11 1011.19 1011.98 1012.12 1011.91 1012.19 1012.17 1012.55 1012.96 1013.40 1014.00 1014.70 1015.52 1015.77 1016.16 1016.35 1016.90 1017.31 1017.77 1017.94 1017.95 1017.93 1018.04 1017.96 1017.72 1017.54 1017.41 1017.65 1017.89 1018.08 1018.11 1017.93 1017.91 1018.26 1018.51 1018.65 1018.79
1008.18 1009.94 1011.28 1013.30 1014.72 1015.09 1014.46 1013.40 1012.36 1011.96 1011.97 1012.37 1012.31 1011.88 1011.64 1011.75 1012.06 1011.78 1011.68 1011.89 1012.26 1012.71 1013.44 1013.90 1014.82 1015.47 1015.70 1015.95 1016.26 1016.78 1017.18 1017.47 1017.66 1017.74 1017.77 1017.78 1017.68 1017.48 1017.75 1017.56 1017.77 1017.77 1017.80 1017.88 1017.95 1018.26 1018.47 1018.53 1018.57
1008.39 1010.09 1011.65 1013.66 1015.32 1015.68 1014.94 1014.33 1013.46 1012.01 1012.83 1012.96 1012.76 1012.05 1011.46 1011.47 1011.72 1011.74 1011.66 1011.53 1011.40 1011.69 1012.54 1013.39 1013.96 1014.59 1015.09 1015.52 1015.76 1016.05 1016.49 1016.89 1017.27 1017.61 1017.63 1017.69 1017.62 1017.65 1017.68 1017.66 1017.57 1017.62 1017.56 1017.53 1017.74 1017.98 1018.23 1018.44 1018.47
1009.75 1011.01 1012.58 1014.00 1015.14 1015.61 1015.52 1014.51 1012.81 1012.69 1013.39 1013.19 1013.04 1012.44 1012.00 1011.02 1011.53 1011.72 1011.52 1011.54 1011.31 1011.22 1011.74 1012.58 1013.48 1014.11 1014.75 1015.08 1015.45 1015.79 1016.14 1016.41 1016.85 1017.32 1017.44 1017.62 1017.64 1017.62 1017.61 1017.61 1017.57 1017.66 1017.70 1017.71 1017.71 1017.76 1017.95 1018.09 1018.14
1009.94 1011.36 1012.62 1014.37 1015.30 1015.46 1015.32 1014.35 1013.24 1013.31 1013.07 1012.34 1013.03 1013.33 1012.52 1012.03 1011.97 1011.81 1012.03 1012.33 1011.46 1011.30 1011.67 1012.17 1013.04 1013.56 1014.01 1014.56 1015.11 1015.32 1015.61 1016.06 1016.49 1016.90 1017.04 1017.22 1017.40 1017.51 1017.62 1017.59 1017.63 1017.60 1017.70 1017.77 1017.85 1017.90 1017.86 1018.02 1018.10
Thickness
5790 5788 5784 5774 5747 5741 5740 5753 5770 5759 5757 5769 5773 5761 5747 5748 5742 5717 5746 5743 5742 5739 5737 5738 5738 5740 5741 5742 5744 5749 5750 5753 5755 5757 5759 5759 5759 5759 5762 5760 5760 5763 5763 5761 5760 5759 5759 5758 5757
5794 5791 5780 5763 5742 5720 5737 5767 5754 5761 5761 5768 5766 5759 5747 5731 5748 5740 5737 5743 5740 5737 5737 5737 5737 5738 5737 5741 5742 5745 5749 5751 5753 5755 5756 5757 5758 5757 5758 5759 5760 5759 5762 5762 5759 5758 5759 5758 5757
5796 5792 5765 5749 5735 5729 5736 5761 5762 5766 5771 5767 5756 5762 5746 5732 5744 5741 5746 5744 5738 5736 5735 5736 5735 5737 5738 5741 5745 5744 5744 5747 5748 5749 5750 5752 5755 5756 5756 5758 5758 5757 5760 5761 5759 5758 5759 5759 5759
5790 5779 5764 5744 5743 5763 5763 5766 5773 5762 5767 5770 5762 5743 5747 5749 5746 5749 5747 5744 5739 5737 5736 5736 5736 5734 5735 5739 5740 5743 5743 5742 5743 5744 5748 5751 5753 5755 5757 5757 5757 5757 5760 5761 5760 5759 5758 5758 5759
5777 5761 5741 5735 5757 5762 5771 5774 5781 5761 5757 5756 5757 5738 5737 5749 5752 5747 5744 5742 5738 5735 5736 5736 5735 5735 5734 5738 5738 5740 5740 5743 5744 5745 5748 5750 5751 5752 5755 5754 5757 5757 5759 5760 5760 5760 5760 5759 5758
5751 5750 5730 5732 5754 5766 5773 5776 5771 5762 5757 5752 5748 5743 5736 5751 5746 5743 5744 5740 5739 5736 5739 5738 5736 5736 5737 5737 5737 5739 5741 5743 5743 5745 5746 5750 5751 5750 5751 5753 5755 5757 5759 5760 5760 5761 5762 5761 5760
5737 5730 5726 5740 5753 5761 5768 5781 5766 5762 5757 5749 5758 5737 5736 5741 5746 5745 5744 5742 5738 5735 5738 5739 5740 5738 5736 5734 5737 5740 5743 5746 5745 5745 5745 5746 5750 5750 5750 5752 5753 5754 5757 5760 5760 5761 5762 5763 5764
5741 5726 5723 5728 5734 5755 5776 5775 5772 5771 5759 5771 5766 5734 5727 5743 5749 5745 5743 5741 5742 5739 5739 5740 5740 5737 5734 5735 5736 5740 5743 5744 5744 5746 5747 5748 5748 5746 5748 5750 5752 5755 5756 5758 5760 5761 5762 5764 5763
5754 5721 5714 5729 5750 5755 5772 5766 5762 5778 5765 5767 5770 5760 5757 5754 5749 5739 5736 5738 5741 5740 5739 5739 5739 5735 5733 5737 5738 5740 5740 5741 5743 5746 5746 5747 5744 5745 5747 5750 5754 5756 5757 5757 5759 5761 5762 5763 5763
5742 5718 5720 5742 5748 5754 5761 5771 5772 5767 5763 5758 5758 5760 5758 5754 5744 5739 5739 5737 5739 5738 5738 5738 5737 5737 5739 5742 5742 5741 5741 5741 5744 5745 5744 5741 5742 5746 5748 5749 5751 5753 5755 5755 5758 5760 5762 5764 5765
5743 5728 5735 5749 5757 5758 5758 5772 5778 5770 5754 5764 5752 5752 5753 5751 5744 5744 5742 5742 5741 5739 5740 5742 5740 5738 5743 5745 5743 5742 5742 5743 5744 5741 5741 5742 5742 5747 5751 5751 5752 5753 5754 5756 5757 5758 5762 5766 5767
5744 5751 5751 5751 5751 5746 5757 5770 5768 5774 5770 5778 5770 5765 5758 5749 5747 5748 5745 5745 5741 5740 5742 5743 5742 5739 5744 5747 5742 5740 5741 5743 5742 5738 5739 5744 5747 5750 5752 5753 5753 5752 5755 5757 5759 5761 5762 5765 5767
5749 5743 5755 5756 5751 5747 5758 5765 5776 5773 5780 5782 5777 5765 5760 5756 5755 5754 5752 5747 5741 5743 5748 5746 5744 5740 5742 5744 5742 5740 5742 5746 5744 5740 5743 5746 5748 5753 5754 5755 5755 5755 5757 5760 5761 5762 5764 5766 5769
5764 5754 5763 5756 5750 5760 5755 5765 5777 5774 5785 5777 5771 5763 5760 5759 5761 5755 5744 5745 5744 5747 5748 5747 5744 5744 5742 5743 5742 5744 5746 5746 5744 5743 5747 5747 5751 5753 5756 5758 5761 5762 5764 5763 5762 5763 5763 5770 5769
5762 5755 5758 5751 5745 5742 5762 5757 5752 5776 5783 5774 5769 5765 5762 5765 5765 5761 5752 5750 5752 5753 5752 5749 5747 5747 5742 5740 5747 5746 5749 5750 5747 5750 5747 5752 5753 5757 5759 5760 5762 5765 5766 5763 5759 5764 5769 5773 5774
5749 5751 5738 5755 5751 5759 5762 5734 5754 5767 5772 5770 5769 5768 5767 5766 5768 5769 5761 5760 5758 5757 5755 5754 5751 5749 5743 5744 5745 5748 5752 5754 5754 5754 5755 5755 5758 5761 5762 5763 5764 5766 5767 5763 5759 5767 5770 5774 5772
5736 5721 5735 5747 5767 5759 5755 5731 5757 5765 5768 5763 5772 5774 5771 5765 5768 5771 5769 5767 5764 5763 5761 5758 5753 5750 5750 5749 5751 5752 5755 5757 5757 5758 5759 5762 5765 5764 5767 5768 5769 5768 5766 5767 5772 5769 5770 5771 5774
5726 5727 5739 5737 5756 5759 5751 5747 5759 5765 5763 5762 5772 5769 5766 5766 5770 5778 5773 5772 5767 5764 5768 5765 5757 5755 5756 5755 5751 5752 5754 5754 5754 5758 5764 5766 5770 5768 5765 5765 5769 5769 5768 5773 5777 5772 5772 5772 5769
5757 5747 5737 5747 5766 5756 5747 5747 5754 5768 5759 5759 5762 5768 5766 5768 5776 5778 5773 5772 5767 5767 5767 5764 5762 5761 5758 5754 5752 5749 5750 5755 5758 5761 5764 5765 5768 5768 5766 5768 5768 5769 5770 5777 5783 5778 5773 5769 5769
5762 5741 5736 5749 5759 5752 5746 5744 5753 5758 5757 5758 5762 5767 5769 5768 5768 5774 5773 5773 5771 5770 5768 5766 5766 5762 5763 5760 5759 5757 5755 5754 5760 5767 5767 5772 5768 5774 5769 5768 5768 5767 5771 5776 5782 5781 5771 5767 5768
5747 5741 5734 5745 5753 5756 5742 5735 5740 5755 5757 5759 5766 5769 5776 5775 5768 5771 5772 5772 5773 5769 5770 5770 5768 5765 5765 5762 5760 5759 5757 5757 5761 5766 5770 5775 5777 5775 5774 5770 5767 5768 5775 5773 5778 5776 5771 5768 5763
5748 5766 5760 5753 5735 5718 5748 5712 5733 5748 5750 5753 5759 5767 5771 5778 5778 5774 5771 5770 5773 5772 5772 5775 5768 5768 5766 5766 5764 5762 5758 5755 5761 5768 5774 5776 5778 5774 5772 5774 5772 5773 5775 5776 5775 5776 5772 5766 5758
5762 5775 5760 5756 5735 5727 5725 5714 5732 5742 5742 5753 5752 5762 5770 5779 5784 5780 5774 5776 5779 5775 5773 5776 5772 5770 5769 5768 5764 5761 5761 5760 5764 5769 5775 5776 5779 5779 5779 5778 5776 5780 5775 5775 5776 5772 5771 5770 5763
5789 5768 5753 5742 5720 5694 5708 5709 5721 5731 5749 5753 5759 5758 5767 5774 5782 5784 5783 5780 5780 5780 5777 5774 5772 5770 5771 5770 5766 5765 5762 5762 5766 5768 5771 5777 5779 5780 5779 5777 5775 5772 5773 5779 5781 5780 5778 5777 5771
5768 5732 5694 5700 5690 5688 5715 5708 5721 5747 5759 5760 5759 5759 5764 5773 5779 5778 5785 5779 5776 5778 5776 5775 5772 5770 5773 5773 5769 5767 5764 5765 5769 5773 5774 5775 5780 5781 5779 5779 5775 5773 5775 5779 5782 5783 5781 5779 5771
5756 5733 5693 5686 5678 5694 5716 5706 5722 5744 5759 5762 5764 5764 5761 5763 5770 5774 5781 5783 5779 5780 5778 5777 5772 5773 5774 5776 5772 5772 5769 5769 5770 5774 5775 5777 5781 5783 5785 5784 5782 5779 5779 5782 5783 5782 5780 5776 5774
5753 5722 5735 5696 5694 5687 5695 5720 5741 5745 5742 5745 5748 5751 5758 5765 5767 5775 5783 5786 5784 5783 5780 5780 5775 5772 5775 5777 5776 5774 5774 5773 5773 5776 5778 5777 5779 5783 5783 5785 5784 5782 5782 5782 5780 5779 5777 5777 5776
5752 5749 5713 5691 5676 5679 5690 5700 5696 5732 5726 5728 5735 5745 5756 5763 5770 5773 5779 5786 5789 5790 5785 5784 5781 5777 5777 5778 5780 5779 5779 5778 5777 5776 5777 5777 5780 5782 5782 5783 5783 5784 5785 5785 5784 5782 5780 5777 5776
5729 5717 5709 5697 5683 5668 5668 5686 5724 5726 5718 5722 5729 5741 5748 5766 5764 5770 5778 5778 5789 5794 5791 5787 5782 5778 5775 5777 5778 5779 5778 5779 5778 5776 5776 5776 5777 5779 5780 5781 5783 5782 5782 5783 5782 5782 5781 5779 5777
5736 5719 5703 5677 5682 5679 5672 5683 5727 5723 5722 5733 5725 5724 5740 5747 5752 5761 5766 5769 5781 5789 5788 5787 5781 5780 5779 5777 5777 5780 5780 5779 5776 5776 5777 5778 5777 5778 5777 5779 5780 5781 5780 5779 5778 5778 5778 5776 5775